Terminal Aerodrome Forecast
Issued by NWS

Home | Current Version | Previous Version | Graphics & Text | Print | Product List | Glossary Off
Versions: 1 2 3 4 5 6 7 8 9 10 11 12 13 14 15 16 17 18 19 20 21 22 23 24 25 26 27 28 29 30 31 32 33 34 35 36 37 38 39 40 41 42 43 44 45 46

000
FTUS43 KDDC 240533
TAFGCK
TAF
KGCK 240533Z 2406/2506 21007KT P6SM BKN250
     FM240900 VRB06KT P6SM VCTS BKN100CB
     FM241200 VRB06KT P6SM VCTS SCT100CB
     FM241300 VRB05KT P6SM SCT200
     FM250000 09009KT P6SM BKN250=

USA.gov is the U.S. government's official web portal to all federal, state and local government web resources and services.